CBERS 1

导读

CBERS 1(资源一号)是中国与巴西联合研制的第一代中巴地球资源卫星,1999年10月14日由中国发射升空。它运行于太阳同步轨道,搭载多光谱CCD相机、广角成像仪等载荷,可获取不同分辨率的对地观测数据。 该卫星填补了中国自主传输型资源卫星的空白,结束了依赖国外遥感数据的历史,为农业、林业、地质、环境保护、国土调查等多领域提供服务,成为南南高科技合作的典范,推动了全球遥感应用发展。

基本信息
目录编号:
25940
目录名称:
CBERS 1
国际标识:
1999-057A
轨道中心:
EARTH
卫星名称:
CBERS 1
卫星全名:
--
卫星状态:
在轨 (已飞行9832 天)
发射日期:
1999-10-14 UTC
国别 :
(CHBZ)
星等 :
--
该卫星已列入 空间交会检测服务 Space Conjunction Data Service (SCDS) ,当前飞行风险评估等级: 无高风险
轨道信息
数据来源 国际轨道数据 AOE轨道数据
星历时间 2026-09-13T20:50:08+0800
13小时前
查看轨道信息
2026-09-13T02:00:00+0800
1天前
查看轨道信息
半长轴 7146.457km 7146.452km
偏心率 0.0006027 0.0005984
轨道倾角 98.851° 98.849°
近地点辐角 96.483° 102.555°
升交点赤经 268.595° 267.786°
平近点角 263.704° 159.886°
近地点 764.012km 764.038km
远地点 772.628km 772.592km
周期 100.207分钟 100.206分钟
每日圈数 14.370325 14.370341
详细信息
使用方式:
暂无
2D轨道图
3D轨道图
轨道高度分析图
轨道倾角分析图
轨道综合分析图
查看轨道综合分析图
交会数据列表
事件ID 空间交会对象 最接近时刻(TCA) 交会距离 交会风险概率(CRP) 交会风险指数(CRI) 操作
CDM_260915-020702-233902-594025
CBERS 1 (25940)
2026-09-15T
02:07:59+0000
1.412 km
极远距离
5.496735E-6 低风险 0.5
与全量物体交会距离演化趋势
与全量物体交会风险概率演化趋势